Weather in Yurasov Khutor

Russia / Bryansk Oblast     52°08′21″N   34°31′18″E
temp.,
°C
wind,
m/s
gust,
m/s
humid.,
%
clouds,
%
prec.,
mm/h
press.,
hPa
HPBL,
m
23 june, wed
wed2300:00+21ese489312 0.0 1018130
03:00+20e379016 0.0 1018115
06:00+20e3108768 0.0 1019188
09:00+26e611705 0.0 1018434
12:00+29e685820 0.0 1018943
15:00+30e6860100 0.0 10181192
18:00+28e4871100 0.0 1018645
21:00+24e3488100 0.0 101968
24 june, thu
thu2400:00+21e3391100 0.0 101941
03:00+20e3389100 0.0 101929
06:00+21e3688100 0.0 1020122
09:00+26ese467271 0.0 1019411
12:00+30e455610 0.0 1019841
15:00+31ese45525 0.0 10181442
18:00+30ese35645 0.0 1018549
21:00+25ese34798 0.0 101849
25 june, fri
fri2500:00+22se348952 0.1 101855
03:00+21ese2290100 0.1 101814
06:00+22e238854 0.1 101869
09:00+27ese4574100 0.1 1017412
12:00+29ese3357100 0.0 10171076
15:00+30e2350100 0.0 10161602
18:00+30se23572 0.0 10151413
21:00+24se11806 0.1 101517
26 june, sat
sat2600:00+21ene228746 0.3 101426
03:00+20ese22891 0.3 101423
06:00+21ese228914 0.3 101454
09:00+25ese338198 0.9 1014321
12:00+29ese336470 0.0 10131003
15:00+31se33565 0.0 10131599
18:00+30ese24635 0.0 10121387
21:00+24ese3382100 0.9 101230
27 june, sun
sun2700:00+22se379075 0.1 1012117
03:00+19nw3698100 1.1 1013153
06:00+21e2392100 0.9 101279
09:00+21sse101486100 4.2 1013362
12:00+26e476578 1.6 1012560
15:00+29sse58607 1.6 10111626
18:00+27se597472 2.1 1010576
21:00+19wsw4995100 6.8 1012365